Find Starlink 11197

NORAD ID: 60186 Int'l Des: 2024-124 Owner: SPXS Country: US Constellation: starlink operational
LEOCIRCULAR

当前视图

正在加载3D地球...

About Starlink 11197

Starlink 11197 (NORAD 60186) is a starlink constellation satellite (v2 mini d2c) launched Jul 3, 2024 by SPXS of US. It operates in LEO, CIRCULAR orbit with a mass of 960.00 kg.

关于 Starlink 11197

正在加载描述...

即将过境

Passes for default location (London). Set your location on the main map for personalized predictions.

高度历史

Loading altitude history...

两行轨道根数

1 60186U 24124D 26171.30006959 .00002029 00000-0 21602-4 0 9991
2 60186 53.1591 15.1713 0000789 98.9334 261.1773 15.69703728112655
Epoch: Jun 20, 2026 • Age: 38 hours

当前状态

高度 375.6 km
速度 7.68 km/s
星下点 -45.40°S, 91.17°E
发射日期 Jul 3, 2024
运行时间 1.9 years
类型 internet

技术详情

分类 Payload
质量 960.00 kg
干质量 910.00 kg
总质量 960.00 kg
长度 0.30 m
直径 4.10 m
跨度 29.00 m
形状 Box + pan
制造商 SPXS
平台类型 Starlink V2MD
阶段状态 In Orbit
所有者/国家 SPXS/US

Most Searched